Weather History for Port Angeles, WA

Change the Weather History Date:

Saturday, July 27, 2013

  Actual Average Record
Temperature  
Mean Temperature 58 °F -  
Max Temperature 72 °F 69 °F 89 °F (1958)
Min Temperature 46 °F 52 °F 45 °F (1985)
Degree Days  
Heating Degree Days 8    
Growing Degree Days 8 (Base 50)    
Moisture  
Dew Point 49 °F    
Average Humidity 76    
Maximum Humidity 96    
Minimum Humidity 49    
Precipitation  
Precipitation 0.00 in - - ()
Sea Level Pressure  
Sea Level Pressure 30.10 in    
Wind  
Wind Speed 6 mph (NW)    
Max Wind Speed 10 mph    
Max Gust Speed -    
Visibility 10 miles    
Events      
Averages and records for this station are not official NWS values.
T = Trace of Precipitation, MM = Missing Value Source: NWS Daily Summary

Daily Weather History Graph

Daily Weather History Graph

Search for Another Location

Airport:

Trip Planner

Search our weather history database for the weather conditions in past years. The results will help you decide how hot, cold, wet, or windy it might be!

Date:

Astronomy

Jul. 27, 2013 Rise Set
Actual Time 5:43 AM PDT 8:56 PM PDT
Civil Twilight 5:06 AM PDT 9:33 PM PDT
Nautical Twilight 4:17 AM PDT 10:22 PM PDT
Astronomical Twilight 3:15 AM PDT 11:23 PM PDT
Moon 11:12 PM PDT (7/27) 12:02 PM PDT (7/27)
Length of Visible Light 16h 27m
Length of Day
15h 12m
Waning Gibbous, 70% of the Moon is Illuminated
Jul 27
Waning Gibbous
Jul 29
Last Quarter
Aug 6
New
Aug 14
First Quarter
Aug 20
Full

Hourly Weather History & Observations

Time (PDT) Temp. Windchill Dew Point Humidity Pressure Visibility Wind Dir Wind Speed Gust Speed Precip Events Conditions
12:53 AM 53.1 °F - 48.9 °F 86% 30.14 in 10.0 mi WNW 10.4 mph - N/A   Clear
1:53 AM 53.1 °F - 48.9 °F 86% 30.13 in 10.0 mi WNW 9.2 mph - N/A   Clear
2:53 AM 52.0 °F - 48.9 °F 89% 30.14 in 10.0 mi West 8.1 mph - N/A   Clear
3:53 AM 48.9 °F - 46.0 °F 90% 30.14 in 10.0 mi Calm Calm - N/A   Clear
4:53 AM 46.0 °F 44.8 °F 45.0 °F 96% 30.14 in 10.0 mi SW 3.5 mph - N/A   Clear
5:53 AM 48.0 °F - 46.0 °F 93% 30.14 in 10.0 mi SW 4.6 mph - N/A   Clear
6:53 AM 51.1 °F - 48.0 °F 89% 30.16 in 10.0 mi Calm Calm - N/A   Clear
7:53 AM 57.9 °F - 51.1 °F 78% 30.16 in 10.0 mi Calm Calm - N/A   Clear
8:53 AM 57.9 °F - 51.1 °F 78% 30.15 in 10.0 mi NNW 4.6 mph - N/A   Clear
9:53 AM 59.0 °F - 51.1 °F 75% 30.15 in 10.0 mi NE 4.6 mph - N/A   Clear
10:53 AM 59.0 °F - 51.1 °F 75% 30.14 in 10.0 mi North 5.8 mph - N/A   Clear
11:53 AM 60.1 °F - 51.1 °F 72% 30.14 in 10.0 mi NNE 5.8 mph - N/A   Clear
12:53 PM 63.0 °F - 51.1 °F 65% 30.13 in 10.0 mi Variable 4.6 mph - N/A   Clear
1:53 PM 69.1 °F - 48.9 °F 49% 30.12 in 10.0 mi East 8.1 mph - N/A   Clear
2:53 PM 69.1 °F - 48.9 °F 49% 30.10 in 10.0 mi East 9.2 mph - N/A   Clear
3:53 PM 69.1 °F - 50.0 °F 51% 30.09 in 10.0 mi Variable 4.6 mph - N/A   Clear
4:53 PM 64.9 °F - 51.1 °F 61% 30.07 in 10.0 mi NW 9.2 mph - N/A   Clear
5:53 PM 63.0 °F - 51.1 °F 65% 30.06 in 10.0 mi NNW 8.1 mph - N/A   Clear
6:53 PM 63.0 °F - 51.1 °F 65% 30.05 in 10.0 mi NW 5.8 mph - N/A   Clear
7:53 PM 64.0 °F - 52.0 °F 65% 30.04 in 10.0 mi NW 4.6 mph - N/A   Clear
8:53 PM 55.9 °F - 48.9 °F 77% 30.03 in 10.0 mi WNW 3.5 mph - N/A   Clear
9:53 PM 53.1 °F - 48.0 °F 83% 30.03 in 10.0 mi West 4.6 mph - N/A   Clear
10:53 PM 53.1 °F - 48.9 °F 86% 30.02 in 10.0 mi West 5.8 mph - N/A   Clear
11:53 PM 53.1 °F - 50.0 °F 89% 30.01 in 10.0 mi West 5.8 mph - N/A   Clear